sat.trackr.live / text

‹ back to catalog

STARLINK-34911

NORAD 65325 · 2025-189C

PAYLOAD ACTIVE UNKNOWN

§ Identity

Operator
Country
US
Launch date
2025-08-27
Launch site
AFETR
Launch vehicle
Mass (kg)
RCS (m²)

Purposes: comms

External: N2YO · Heavens-Above · Gunter

§ Orbital elements

Epoch: 2026-09-20T14:21:22.851360Z

Period
93.85 min
Inclination
53.1605°
Eccentricity
0.0000975
Mean motion
15.34399927 rev/d
Perigee alt
462.0 km
Apogee alt
463.4 km
Semi-major
6,840.8 km
B*
6.3672e-4
RAAN
18.9003°
Arg perigee
64.6098°
Mean anomaly
295.5005°
Rev number
6,098

§ Raw data

STARLINK-349111 65325U 25189C   26263.59818115  .00021197  00000+0  63672-3 0  99992 65325  53.1605  18.9003 0000975  64.6098 295.5005 15.34399927 60989

JSON: /api/v1/satellites/65325 · /tle

For live sub-satellite position, see the globe view (requires WebGL).

§ Visibility from observer

Set your observer location to see the next 7 days of passes ≥ 10°. The values pass through the URL so the page stays shareable.

No JS? Fill the form by hand. The geolocation button needs JavaScript.